Location: Caracas
(10.5033°N, 66.8422°W)
Time: 16:48:35
(UTC-04:00)

Vanguard 2 Rocket - All Passes

Search period start: 24 April 2018 00:00
Search period end: 04 May 2018 00:00
Orbit: 553 x 3328 km, 32.9° (Epoch: 24 April)

Date Brightness Start Highest point End Pass type
(mag) Time Alt. Az. Time Alt. Az. Time Alt. Az.
24 Apr - 01:02:32 10° SW 01:11:43 66° SE 01:27:59 10° ENE visible
24 Apr - 03:16:14 10° W 03:28:52 56° NNW 03:48:06 10° NE visible
24 Apr - 05:34:40 10° WNW 05:50:29 36° N 06:08:18 10° NE visible
24 Apr - 07:55:40 10° NW 08:13:58 38° N 08:28:58 10° ENE daylight
24 Apr - 10:15:45 10° NW 10:34:40 64° NNE 10:46:18 10° ESE daylight
24 Apr - 12:36:17 10° WNW 12:50:40 50° SW 12:58:58 10° SSE daylight
25 Apr - 00:04:08 10° SSW 00:11:43 43° SE 00:24:37 10° ENE visible
25 Apr - 02:16:13 10° WSW 02:27:03 68° NNW 02:45:23 10° NE visible
25 Apr - 04:32:51 10° WNW 04:47:07 39° NNW 05:05:31 10° NE visible
25 Apr - 06:53:02 10° NW 07:10:26 36° N 07:26:51 10° ENE daylight
25 Apr - 09:13:06 10° NW 09:32:33 53° NNE 09:46:00 10° E daylight
25 Apr - 11:33:01 10° WNW 11:50:25 74° SW 12:00:20 10° SE daylight
25 Apr - 13:57:07 10° W 14:04:08 17° SW 14:09:22 10° S daylight
25 Apr - 23:06:33 10° S 23:12:15 24° SE 23:20:41 10° E night (unlit)
26 Apr - 01:16:49 10° WSW 01:25:59 87° NW 01:42:36 10° NE visible
26 Apr - 03:31:45 10° W 03:44:16 44° NNW 04:02:36 10° NE visible
26 Apr - 05:50:44 10° WNW 06:06:43 35° N 06:24:05 10° ENE visible
26 Apr - 08:10:37 10° NW 08:29:47 45° NNE 08:44:57 10° E daylight
26 Apr - 10:30:05 10° NW 10:49:24 84° NNE 11:01:06 10° ESE daylight
26 Apr - 12:51:59 10° WNW 13:04:29 32° SW 13:12:25 10° SSE daylight
26 Apr - 22:12:18 10° SE 22:12:58 10° SE 22:13:40 10° SE night (unlit)
27 Apr - 00:17:59 10° SW 00:25:41 67° SE 00:39:44 10° ENE visible
27 Apr - 02:31:21 10° W 02:42:08 51° NNW 02:59:43 10° NE visible
27 Apr - 04:48:54 10° WNW 05:03:09 35° N 05:20:53 10° NE visible
27 Apr - 07:08:23 10° NW 07:26:30 40° NNE 07:43:03 10° ENE daylight
27 Apr - 09:27:28 10° NW 09:47:38 68° NNE 10:01:13 10° ESE daylight
27 Apr - 11:47:59 10° WNW 12:04:25 52° SW 12:14:17 10° SSE daylight
27 Apr - 23:19:43 10° SSW 23:26:03 40° SE 23:36:44 10° ENE visible
28 Apr - 01:31:34 10° WSW 01:40:43 63° NNW 01:56:56 10° NE visible
28 Apr - 03:47:37 10° WNW 04:00:03 37° N 04:17:30 10° NE visible
28 Apr - 06:06:25 10° NW 06:22:55 36° N 06:40:18 10° ENE daylight
28 Apr - 08:25:11 10° NW 08:45:12 56° NNE 09:00:35 10° E daylight
28 Apr - 10:44:38 10° WNW 11:03:43 73° SW 11:15:26 10° SE daylight
28 Apr - 13:09:01 10° W 13:18:18 20° SW 13:25:02 10° S daylight
28 Apr - 22:22:18 10° S 22:26:51 21° SE 22:33:18 10° E night (unlit)
29 Apr - 00:32:19 10° WSW 00:40:01 83° NNW 00:54:19 10° NE visible
29 Apr - 02:46:56 10° W 02:57:36 40° NNW 03:14:13 10° NE visible
29 Apr - 05:04:49 10° NW 05:19:21 34° N 05:36:51 10° ENE visible
29 Apr - 07:23:13 10° NW 07:42:13 47° NNE 07:59:05 10° E daylight
29 Apr - 09:41:49 10° NW 10:02:17 87° NNE 10:15:57 10° ESE daylight
29 Apr - 12:03:42 10° WNW 12:18:14 35° SW 12:27:42 10° SSE daylight
29 Apr - 23:33:35 10° SW 23:40:03 68° SE 23:51:50 10° ENE visible
30 Apr - 01:46:48 10° W 01:55:52 46° NNW 02:11:13 10° NE visible
30 Apr - 04:03:36 10° WNW 04:16:06 33° N 04:33:00 10° ENE visible
30 Apr - 06:21:36 10° NW 06:38:53 41° NNE 06:56:38 10° E daylight
30 Apr - 08:39:32 10° NW 09:00:10 71° NNE 09:15:44 10° ESE daylight
30 Apr - 10:59:37 10° WNW 11:17:42 52° SW 11:29:18 10° SSE daylight
30 Apr - 13:29:37 10° WSW 13:32:26 11° SW 13:35:00 10° SSW daylight
30 Apr - 22:35:24 10° SSW 22:40:42 38° SE 22:49:20 10° ENE night (unlit)
01 May - 00:47:10 10° WSW 00:54:50 56° NNW 01:08:36 10° NE visible
01 May - 03:02:47 10° WNW 03:13:25 33° N 03:29:09 10° NE visible
01 May - 05:20:19 10° NW 05:35:28 36° NNE 05:53:14 10° ENE visible
01 May - 07:37:42 10° NW 07:57:29 58° NNE 08:14:42 10° ESE daylight
01 May - 09:56:23 10° WNW 10:16:32 72° SW 10:30:12 10° SE daylight
01 May - 12:20:43 10° W 12:32:08 22° SW 12:40:24 10° S daylight
01 May - 21:38:06 10° S 21:41:41 18° SE 21:46:26 10° E night (unlit)
01 May - 23:48:02 10° WSW 23:54:28 76° NNW 00:06:21 10° NE visible
02 May - 02:02:25 10° WNW 02:11:23 35° NNW 02:25:41 10° NE visible
02 May - 04:19:21 10° NW 04:32:13 32° N 04:49:07 10° ENE visible
02 May - 06:36:19 10° NW 06:54:26 48° NNE 07:12:42 10° E daylight
02 May - 08:53:54 10° WNW 09:14:41 90° NNE 09:30:24 10° SE daylight
02 May - 11:15:22 10° WNW 11:31:33 36° SW 11:42:42 10° SSE daylight
02 May - 22:49:19 10° SW 22:54:46 70° SE 23:04:22 10° ENE night (unlit)
03 May - 01:02:30 10° W 01:10:03 39° NNW 01:22:49 10° NE visible
03 May - 03:18:41 10° NW 03:29:25 30° N 03:44:43 10° ENE visible
03 May - 05:35:19 10° NW 05:51:16 41° NNE 06:09:40 10° E visible
03 May - 07:52:03 10° NW 08:12:18 73° NNE 08:29:48 10° ESE daylight
03 May - 10:11:24 10° WNW 10:30:31 53° SW 10:44:01 10° SSE daylight
03 May - 12:40:19 10° WSW 12:46:22 13° SW 12:51:29 10° SSW daylight
03 May - 21:51:08 10° SSW 21:55:36 36° SE 22:02:30 10° ENE night (unlit)
